loading
|

THOR ABLESTAR DEB, 254

Orbit data source: Space-Track

THOR ABLESTAR DEB, 254 is space debris in LEO originally from a launch on Thu, 29 Jun 1961 UTC launched from the Air Force Eastern Test Range (AFETR). Debris objects in space refer to the collection of defunct objects orbiting the Earth. Examples of debris include non-operational satellites, rocket bodies, and fragments generated from explosions, collisions, or faulty payload assembly.

Loading next visibility...
Loading greatness...
THOR ABLESTAR DEB details
Identifier
254, 1961-015CF
Orbit
LEO
Last TLE update23 hours ago
Origin
Flag of USUSAF SSD (US)
ManufacturerUnknown
Mission statusUnknown
MissionUnknown
Bus & MotorUnknown
MassUnknown
Launch date (UTC)
1961-06-29 (63 years ago)
Launch vehicleUnknown
Launch site
Air Force Eastern Test Range (AFETR)
Object type
Payload
Rocket body
Debris
Radar Cross SectionSmall (<0.1 m²)

Expand to show TLE details & history

TLE from 23 hours ago
0 THOR ABLESTAR DEB
1   254U 61015CF  24258.27061668  .00011596  00000-0  30471-2 0  9990
2   254  66.7742 207.9319 0071433 213.2548 146.4062 14.47850434281126
Epoch: 2024-09-14T06:29Z
Definitive object data (Epoch: 2024-09-14T06:29:41.281Z)
Latitude0.00001°
Longitude116.77916°
Altitude777.234 km
Speed7.444 km/s
True Right ascension13h 51m 43s
True Declination0° 00' 00"
Sunlit
Object was in daylight at TLE epoch
Predictive object data (real-time)
Latitude17.96256°
Longitude122.12825°
Altitude783.655 km
Speed7.438 km/s
Apparent Right ascension12h 39m 46s
Apparent Declination-10° 16' 18"
Sunlit
Object is in daylight
Predictive observer data (real-time)
Local Sidereal Time22:26:01
Azimuth305.734° NW
Elevation-48.09°
Doppler factor1
Orbital elements
Apogee781.813 km
Perigee680.248 km
Semi-major axis7,109.167 km
Eccentricity0.0071433
Inclination66.7742°
RAAN207.9319°
Arg. of periapsis213.2548°
True anomaly146.85576°
Mean anomaly146.4062°
Eccentric anomaly146.63131°
Mean motion3.62089 °/min
BSTAR0.0030471
Period99.42 mins
No data available

THOR ABLESTAR DEB Visibility forecast

Observer location: 39.9160978°, -105.1181434

THOR ABLESTAR DEB is not visible in the next 10 days
Span
Click to sort rows by Start time (UTC) header in descending order
Start Az.
Max El. time (UTC)
Max El. Az.
Max El.
End time (UTC)
End Az.